Regional Weather Roundup
Issued by NWS

Home | Current Version | Previous Version | Text Only | Print | Product List | Glossary On
Versions: 1 2 3 4 5 6 7 8 9 10 11 12 13 14 15 16 17 18 19 20 21 22 23 24 25 26 27 28 29 30 31 32 33 34 35 36 37 38 39 40 41 42 43 44 45 46 47 48 49 50
000
ASUS43 KIND 241409
RWRIN

WEATHER ROUNDUP FOR INDIANA
NATIONAL WEATHER SERVICE INDIANAPOLIS IN
1000 AM EDT SUN JUL 24 2016

NOTE: "FAIR" INDICATES FEW OR NO CLOUDS BELOW 12,000 FEET WITH NO
SIGNIFICANT WEATHER AND/OR OBSTRUCTIONS TO VISIBILITY.

* - STATION DOES NOT REPORT WEATHER SUCH AS PRECIPITATION OR FOG.

+ - STATION NOT QUALITY CONTROLLED BY THE NATIONAL WEATHER SERVICE.
    USE DATA WITH CAUTION...ESPECIALLY DEWPOINT AND RELATIVE
    HUMIDITY OBSERVATIONS.

INZ001>003-010>013-019-020-241500-
NORTHWEST INDIANA

CITY           SKY/WX    TMP DP  RH WIND       PRES   REMARKS
GARY /AIRPORT/ PTSUNNY   77 N/A N/A S8        29.95S
KNOX *+        MOSUNNY   77  66  69 S8        29.97F
LA PORTE +     MOSUNNY   79  78  97 S5        29.97F
MICHIGAN CITY+ CLOUDY    79  73  83 S12       29.95F
MONTICELLO +   MOSUNNY   77  67  71 S6        29.99R
RENSSELAER +   MOSUNNY   77  72  83 S6        29.98F
VALPARAISO     MOSUNNY   77  71  82 S9        29.97F

$$

LMZ046-743>745-241500-
SOUTHERN LAKE MICHIGAN

STATION/POSITION TIME  TEMP    WIND        PRES    WAVE
                       AIR SEA DIR/SP/G            HT
                 (UTC) (F)     (DEG/KT/KT) (MB)    (FT)
BURNS HARBOR     1305   76     180/  8/ 13 1014.6R
MICHIGAN CITY    1300   75     150/ 13/ 15   N/A
5NW MICH CITY    1400   77 73  200/ 16/ 19   N/A     1

$$

INZ004-005-014>016-021>024-241500-
NORTH CENTRAL INDIANA

CITY           SKY/WX    TMP DP  RH WIND       PRES   REMARKS
ELKHART        CLOUDY    75  75 100 S9        29.98S
GOSHEN         CLOUDY    76  70  82 S7        29.99S
LOGANSPORT +   MOSUNNY   77  70  78 S5        30.01S
PERU/GRISSOM   MOSUNNY   81  72  74 S9        29.99R
ROCHESTER +    CLOUDY    81  73  78 S5        30.00S
SOUTH BEND     MOSUNNY   76  72  87 S7        29.97S
WARSAW +       CLOUDY    73  72  94 S3        30.00R

$$

INZ006>009-017-018-025>027-241500-
NORTHEAST INDIANA

CITY           SKY/WX    TMP DP  RH WIND       PRES   REMARKS
ANGOLA *+      MOSUNNY   73  66  78 CALM      30.00S
AUBURN +       CLOUDY    73  70  88 SW3       30.01S
FORT WAYNE     CLOUDY    75  70  84 S6        30.00S
HUNTINGTON +   CLOUDY   N/A N/A N/A CALM      30.00S

$$

INZ028-029-035-036-043>045-051>053-241500-
WEST CENTRAL INDIANA

CITY           SKY/WX    TMP DP  RH WIND       PRES   REMARKS
CRAWFORDSVL +  PTSUNNY   78  76  95 SE3       30.02R
GREENCASTLE +  CLOUDY    79  79 100 SE3       30.02R FOG
LAFAYETTE      CLOUDY    79  72  79 VRB6      29.99R
TERRE HAUTE    MOSUNNY   83  76  79 S5        29.99S

$$

INZ030>032-037>040-046>048-054>057-064-065-241500-
CENTRAL INDIANA

CITY           SKY/WX    TMP DP  RH WIND       PRES   REMARKS
COLUMBUS       PTSUNNY   81  77  89 S3        30.02R
FRANKFORT +    MOSUNNY   82  74  75 S3        30.03R
INDIANAPOLIS   PTSUNNY   82  73  74 SE7       30.02R
-EAGLE CREEK   CLOUDY    82  71  69 SE3       30.01R
KOKOMO *+      PTSUNNY   81  70  69 S8        30.00S
MARION +       CLOUDY    80  71  74 S6        30.01F
MT COMFORT *+  PTSUNNY   82  73  74 SE5       30.03R
SHELBYVILLE    MOSUNNY   84  74  71 CALM      30.01R
ZIONSVILLE +   CLOUDY    79  71  77 SE3       30.03R

$$

INZ033-034-041-042-049-050-058-059-241500-
EAST CENTRAL INDIANA

CITY           SKY/WX    TMP DP  RH WIND       PRES   REMARKS
MUNCIE         CLOUDY    84  70  62 SE6       30.02R

$$

INZ060-061-067>069-081>083-085>088-241500-
SOUTHWEST INDIANA

CITY           SKY/WX    TMP DP  RH WIND       PRES   REMARKS
EVANSVILLE     SUNNY     83  76  79 SW8       29.99S
HUNTINGBURG *+ SUNNY     82  75  78 S6        30.00S
WASHINGTON +   SUNNY     83  79  87 MISG      29.99R HX  95

$$

INZ062-063-066-070>080-084-089>092-241500-
SOUTH CENTRAL AND SOUTHEAST INDIANA

CITY           SKY/WX    TMP DP  RH WIND       PRES   REMARKS
BLOOMINGTON    SUNNY     83  76  79 S3        30.01S
MADISON *+     MOSUNNY   82  73  74 CALM      30.05R
NORTH VERNON + MOSUNNY  N/A N/A N/A CALM      30.03R

$$




USA.gov is the U.S. government's official web portal to all federal, state and local government web resources and services.